Location: Newark
(52.3735°N, 16.9806°E)
Time: 05:39:23
(UTC+00:00)

ISS - Pass Details

Date: 28 September 2021
Orbit: 417 x 423 km, 51.6° (Epoch: 16 October)

Event Time Altitude Azimuth Distance (km) Brightness Sun altitude
Rises 17:23:50 0° 272° (W) 2,364 2.5 -8.1°
Reaches altitude 10° 17:25:56 10° 271° (W) 1,500 0.7 -8.4°
Maximum altitude 17:29:18 78° 185° (S) 433 -3.7 -8.9°
Enters shadow 17:32:09 14° 100° (E) 1,294 -2.0 -9.4°
